User: anonymous   Login
Location: *
(60.1759°S, 155.0663°W)
Time: 15:21:36
(UTC+00:00)
Language:

Landsat 5 - Orbit

View from above orbital plane
View from above orbital plane
View from above satellite
View from above satellite

Ground track
Ground track

The orbit data is extracted from the following two-line orbital elements,

1 14780U 84021A   19325.26148169 -.00000003  00000-0  58786-5 0  9995
2 14780  98.1446 110.0067 0091226 130.7104 230.2084 14.91972327908129
Epoch (UTC): 21 November 2019 06:16:32
Eccentricity: 0.0091226
inclination: 98.1446°
perigee height: 528 km
apogee height: 655 km
right ascension of ascending node: 110.0067°
argument of perigee: 130.7104°
revolutions per day: 14.91972327
mean anomaly at epoch: 230.2084°
orbit number at epoch: 90812

The dashed part of the orbit path shows where the satellite is in the earth's shadow,  

DLR